Location: Neuvy Saint Sepulchre
(46.5953°N, 1.8122°E)
Time: 15:34:35
(UTC+02:00)

ISS - Pass Details

Date: 04 May 2026
Orbit: 414 x 424 km, 51.6° (Epoch: 21 May)

Event Time Altitude Azimuth Distance (km) Brightness Sun altitude
Rises 05:37:43 0° 296° (WNW) 2,364 -0.2 -9.2°
Reaches altitude 10° 05:39:49 10° 297° (WNW) 1,500 -1.2 -8.9°
Maximum altitude 05:43:11 80° 24° (NNE) 430 -3.6 -8.4°
Drops below altitude 10° 05:46:34 10° 113° (ESE) 1,501 -0.5 -7.9°
Sets 05:48:40 0° 115° (ESE) 2,365 0.5 -7.6°
